Regional Weather Roundup
Issued by NWS

Home | Current Version | Previous Version | Graphics & Text | Print | Product List | Glossary On
Versions: 1 2 3 4 5 6 7 8 9 10 11 12 13 14 15 16 17 18 19 20 21 22 23 24 25 26 27 28 29 30 31 32 33 34 35 36 37 38 39 40 41 42 43 44 45 46 47 48 49 50
000
ASUS45 KBOI 271510
RWRID
WEATHER ROUNDUP FOR IDAHO
NATIONAL WEATHER SERVICE BOISE ID
900 AM MDT SUN JUL 27 2014

NOTE: "FAIR" INDICATES FEW OR NO CLOUDS BELOW 12000 FEET
WITH NO SIGNIFICANT WEATHER AND/OR OBSTRUCTIONS TO VISIBILITY

IDZ012-014-271600-
SOUTHWEST IDAHO


CITY           SKY/WX    TMP DP  RH WIND       PRES   REMARKS
BOISE          SUNNY     73  32  22 SE3       30.14R
CALDWELL       SUNNY     64  43  45 CALM      30.15S
MOUNTAIN HOME  SUNNY     71  37  29 E7        30.14R
$$

IDZ016-017-271600-
SOUTHCENTRAL IDAHO


CITY           SKY/WX    TMP DP  RH WIND       PRES   REMARKS
BURLEY         SUNNY     66  44  45 E6        30.21R
JEROME         SUNNY     73  42  32 NE7       30.20R
TWIN FALLS     SUNNY     77  27  15 W3        30.20S
$$

IDZ019>023-271600-
SOUTHEAST IDAHO


CITY           SKY/WX    TMP DP  RH WIND       PRES   REMARKS
IDAHO FALLS    SUNNY     63  46  54 N8        30.28R
POCATELLO      SUNNY     64  36  35 NE3       30.26R
REXBURG        SUNNY     59  40  49 CALM      30.30R
$$

IDZ006-010-011-018-031-032-271600-
CENTRAL IDAHO MOUNTAINS


CITY           SKY/WX    TMP DP  RH WIND       PRES   REMARKS
MCCALL         SUNNY     60  40  47 CALM      30.28R
HAILEY         MOSUNNY   63  34  34 NW12      30.32R
STANLEY          N/A     51  27  39 E6        30.44R
SALMON         SUNNY     57  43  58 S3        30.30S
CHALLIS        SUNNY     63  29  27 CALM      30.34S
$$

IDZ002-004-006-007-026-271600-
NORTHERN IDAHO


CITY           SKY/WX    TMP DP  RH WIND       PRES   REMARKS
LEWISTON       SUNNY     68  45  43 NE5       30.15R
LOWELL           N/A     55  47  74 CALM      30.22F
COEUR D`ALENE  SUNNY     64  52  63 E14       30.20R
MULLAN PASS    SUNNY     60  37  42 SE8       30.36R
$$


USA.gov is the U.S. government's official web portal to all federal, state and local government web resources and services.